Regional Weather Roundup
Issued by NWS

Home | Current Version | Previous Version | Graphics & Text | Print | Product List | Glossary Off
Versions: 1 2 3 4 5 6 7 8 9 10 11 12 13 14 15 16 17 18 19 20 21 22 23 24 25 26 27 28 29 30 31 32 33 34 35 36 37 38 39 40 41 42 43 44 45 46 47 48 49 50

242
ASUS43 KTOP 261308
RWRKS

WEATHER ROUNDUP FOR KANSAS
NATIONAL WEATHER SERVICE GOODLAND KS
800 AM CDT SUN MAR 26 2017

NOTE:  "FAIR" INDICATES FEW OR NO CLOUDS BELOW 12,000 FEET WITH NO
SIGNIFICANT WEATHER AND/OR OBSTRUCTIONS TO VISIBILITY.

KSZ001>006-013>018-027>032-041>047-261400-
NORTHWEST KANSAS

CITY           SKY/WX    TMP DP  RH WIND       PRES   REMARKS
GOODLAND       FOG       37  37 100 E8        29.80F VSB 1/4
HAYS             N/A     41  40  96 NE6       29.88S FOG
HILL CITY      FOG       41  41 100 E6        29.88S VSB 1/2
RUSSELL        CLOUDY    41  40  96 CALM      29.88R FOG
$$

KSZ061>065-074>080-084>089-261400-
SOUTHWEST KANSAS

CITY           SKY/WX    TMP DP  RH WIND       PRES   REMARKS
DODGE CITY     FOG       37  37 100 E15       29.82S VSB<1/4 WCI  28
ELKHART          N/A     38  30  73 SE8         N/A
GARDEN CITY    FOG       38  37  97 E17       29.78R VSB 1/4 WCI  28
GREAT BEND     CLOUDY    42  41  96 E7        29.88S FOG
LIBERAL        CLOUDY    41  36  81 E20       29.73F
PRATT          CLOUDY    38  38  97 E5        29.88S FOG
$$

KSZ066>073-081>083-090>101-261400-
SOUTHEAST KANSAS

CITY           SKY/WX    TMP DP  RH WIND       PRES   REMARKS
CHANUTE        CLOUDY    46  44  93 CALM      29.93R
COFFEYVILLE    CLOUDY    48  45  89 CALM      29.94R
HUTCHINSON     CLOUDY    42  41  96 E5        29.89S FOG
MEDICINE LODGE   N/A     42  40  92 E7        29.87F
NEWTON         CLOUDY    41  41 100 SW3       29.91S FOG
PARSONS        CLOUDY    47  43  86 CALM      29.94R
WICHITA INTL   CLOUDY    43  42  97 CALM      29.91R FOG
WICHITA JABRA  CLOUDY    43  43 100 CALM      29.90R FOG
WICHITA MCCONL CLOUDY    43  43 100 CALM      29.90R FOG
WINFIELD       CLOUDY    45  42  89 SE3       29.92R
$$

KSZ007>012-019>026-033>040-048>060-102>105-261400-
NORTHEAST KANSAS

CITY           SKY/WX    TMP DP  RH WIND       PRES   REMARKS
CONCORDIA      CLOUDY    40  40 100 CALM      29.90R FOG
EMPORIA        CLOUDY    43  43 100 SW5       29.91S FOG
LAWRENCE       CLOUDY    44  43  96 NE5       29.89F
MANHATTAN      CLOUDY    43  41  93 CALM      29.92R FOG
MARYSVILLE     CLOUDY    41  39  93 NW3       29.90R FOG
OLATHE IND     CLOUDY    43  41  93 N5        29.90F
OLATHE EXE     CLOUDY    43  42  97 N3        29.90S
SALINA         CLOUDY    44  42  93 CALM      29.92R FOG
TOPEKA BILLARD CLOUDY    44  43  96 W5        29.92R
TOPEKA FORBES  CLOUDY    45  43  93 W3        29.91R
$$




USA.gov is the U.S. government's official web portal to all federal, state and local government web resources and services.